Time,TemperatureF,DewpointF,PressureIn,WindDirection,WindDirectionDegrees,WindSpeedMPH,WindSpeedGustMPH,Humidity,HourlyPrecipIn,Conditions,Clouds,dailyrainin,SolarRadiationWatts/m^2,SoftwareType,DateUTC
2013-06-02 00:22:00,45.0,45.0,-100.00,North,9,10.0,14.0,100,0.00,,,0.34,0.000000,,2013-06-02 05:22:00,
2013-06-02 00:32:00,45.0,45.0,-100.00,North,9,10.0,14.0,100,0.00,,,0.34,0.000000,,2013-06-02 05:32:00,
2013-06-02 00:42:00,45.0,45.0,-100.00,North,9,10.0,14.0,100,0.00,,,0.34,0.000000,,2013-06-02 05:42:00,
2013-06-02 00:52:00,45.0,45.0,-100.00,North,9,10.0,14.0,100,0.00,,,0.34,0.000000,,2013-06-02 05:52:00,
2013-06-02 01:21:00,44.0,44.0,-100.00,North,353,11.0,15.0,100,0.00,,,0.24,0.000000,,2013-06-02 06:21:00,
2013-06-02 01:32:00,44.0,44.0,-100.00,North,353,11.0,15.0,100,0.00,,,0.24,0.000000,,2013-06-02 06:32:00,
2013-06-02 01:42:00,44.0,44.0,-100.00,North,353,11.0,15.0,100,0.00,,,0.24,0.000000,,2013-06-02 06:42:00,
2013-06-02 01:52:00,44.0,44.0,-100.00,North,353,11.0,15.0,100,0.00,,,0.24,0.000000,,2013-06-02 06:52:00,
2013-06-02 02:21:00,43.0,43.0,-100.00,NNW,344,9.0,15.0,100,0.00,,,0.15,0.000000,,2013-06-02 07:21:00,
2013-06-02 02:32:00,43.0,43.0,-100.00,NNW,344,9.0,15.0,100,0.00,,,0.15,0.000000,,2013-06-02 07:32:00,
2013-06-02 02:42:00,43.0,43.0,-100.00,NNW,344,9.0,15.0,100,0.00,,,0.15,0.000000,,2013-06-02 07:42:00,
2013-06-02 02:52:00,43.0,43.0,-100.00,NNW,344,9.0,15.0,100,0.00,,,0.15,0.000000,,2013-06-02 07:52:00,
2013-06-02 03:21:00,43.0,43.0,-100.00,North,357,12.0,15.0,100,0.00,,,0.13,0.000000,,2013-06-02 08:21:00,
2013-06-02 03:32:00,43.0,43.0,-100.00,North,357,12.0,15.0,100,0.00,,,0.13,0.000000,,2013-06-02 08:32:00,
2013-06-02 03:42:00,43.0,43.0,-100.00,North,357,12.0,15.0,100,0.00,,,0.13,0.000000,,2013-06-02 08:42:00,
2013-06-02 03:52:00,43.0,43.0,-100.00,North,357,12.0,15.0,100,0.00,,,0.13,0.000000,,2013-06-02 08:52:00,
2013-06-02 04:21:00,43.0,43.0,-100.00,North,7,8.0,13.0,100,0.00,,,0.09,0.000000,,2013-06-02 09:21:00,
2013-06-02 04:33:00,43.0,43.0,-100.00,North,7,8.0,13.0,100,0.00,,,0.09,0.000000,,2013-06-02 09:33:00,
2013-06-02 04:42:00,43.0,43.0,-100.00,North,7,8.0,13.0,100,0.00,,,0.09,0.000000,,2013-06-02 09:42:00,
2013-06-02 04:53:00,43.0,43.0,-100.00,North,7,8.0,13.0,100,0.00,,,0.09,0.000000,,2013-06-02 09:53:00,
2013-06-02 05:22:00,43.0,43.0,-100.00,NNE,14,7.0,14.0,100,0.00,,,0.08,0.000000,,2013-06-02 10:22:00,
2013-06-02 05:32:00,43.0,43.0,-100.00,NNE,14,7.0,14.0,100,0.00,,,0.08,0.000000,,2013-06-02 10:32:00,
2013-06-02 05:42:00,43.0,43.0,-100.00,NNE,14,7.0,14.0,100,0.00,,,0.08,0.000000,,2013-06-02 10:42:00,
2013-06-02 05:52:00,43.0,43.0,-100.00,NNE,14,7.0,14.0,100,0.00,,,0.08,0.000000,,2013-06-02 10:52:00,
2013-06-02 06:22:00,42.0,42.0,-100.00,North,9,7.0,11.0,100,0.00,,,0.07,4.000000,,2013-06-02 11:22:00,
2013-06-02 06:32:00,42.0,42.0,-100.00,North,9,7.0,11.0,100,0.00,,,0.07,4.000000,,2013-06-02 11:32:00,
2013-06-02 06:42:00,42.0,42.0,-100.00,North,9,7.0,11.0,100,0.00,,,0.07,4.000000,,2013-06-02 11:42:00,
2013-06-02 06:52:00,42.0,42.0,-100.00,North,9,7.0,11.0,100,0.00,,,0.07,4.000000,,2013-06-02 11:52:00,
2013-06-02 07:21:00,43.0,43.0,-100.00,NNE,13,7.0,12.0,100,0.00,,,0.04,67.000000,,2013-06-02 12:21:00,
2013-06-02 07:32:00,43.0,43.0,-100.00,NNE,13,7.0,12.0,100,0.00,,,0.04,67.000000,,2013-06-02 12:32:00,
2013-06-02 07:42:00,43.0,43.0,-100.00,NNE,13,7.0,12.0,100,0.00,,,0.04,67.000000,,2013-06-02 12:42:00,
2013-06-02 07:52:00,43.0,43.0,-100.00,NNE,13,7.0,12.0,100,0.00,,,0.04,67.000000,,2013-06-02 12:52:00,
2013-06-02 08:21:00,47.0,47.0,-100.00,NE,37,8.0,11.0,100,0.00,,,0.04,301.000000,,2013-06-02 13:21:00,
2013-06-02 08:32:00,47.0,47.0,-100.00,NE,37,8.0,11.0,100,0.00,,,0.04,301.000000,,2013-06-02 13:32:00,
2013-06-02 08:42:00,47.0,47.0,-100.00,NE,37,8.0,11.0,100,0.00,,,0.04,301.000000,,2013-06-02 13:42:00,
2013-06-02 08:52:00,47.0,47.0,-100.00,NE,37,8.0,11.0,100,0.00,,,0.04,301.000000,,2013-06-02 13:52:00,
2013-06-02 09:21:00,51.0,45.0,-100.00,NNW,344,7.0,11.0,81,0.00,,,0.03,307.000000,,2013-06-02 14:21:00,
2013-06-02 09:32:00,51.0,45.0,-100.00,NNW,344,7.0,11.0,81,0.00,,,0.03,307.000000,,2013-06-02 14:32:00,
2013-06-02 09:42:00,51.0,45.0,-100.00,NNW,344,7.0,11.0,81,0.00,,,0.03,307.000000,,2013-06-02 14:42:00,
2013-06-02 09:52:00,51.0,45.0,-100.00,NNW,344,7.0,11.0,81,0.00,,,0.03,307.000000,,2013-06-02 14:52:00,
2013-06-02 10:21:00,54.0,46.0,-100.00,NNW,342,7.0,14.0,73,0.00,,,0.02,135.000000,,2013-06-02 15:21:00,
2013-06-02 10:33:00,54.0,46.0,-100.00,NNW,342,7.0,14.0,73,0.00,,,0.02,135.000000,,2013-06-02 15:33:00,
2013-06-02 10:43:00,54.0,46.0,-100.00,NNW,342,7.0,14.0,73,0.00,,,0.02,135.000000,,2013-06-02 15:43:00,
2013-06-02 10:53:00,54.0,46.0,-100.00,NNW,342,7.0,14.0,73,0.00,,,0.02,135.000000,,2013-06-02 15:53:00,
2013-06-02 11:23:00,55.0,44.0,-100.00,North,349,6.0,12.0,67,0.00,,,0.02,379.000000,,2013-06-02 16:23:00,
2013-06-02 11:33:00,55.0,44.0,-100.00,North,349,6.0,12.0,67,0.00,,,0.02,379.000000,,2013-06-02 16:33:00,
2013-06-02 11:42:00,55.0,44.0,-100.00,North,349,6.0,12.0,67,0.00,,,0.02,379.000000,,2013-06-02 16:42:00,
2013-06-02 11:52:00,55.0,44.0,-100.00,North,349,6.0,12.0,67,0.00,,,0.02,379.000000,,2013-06-02 16:52:00,
2013-06-02 12:23:00,56.0,44.0,-100.00,NW,325,7.0,14.0,65,0.00,,,0.02,774.000000,,2013-06-02 17:23:00,
2013-06-02 12:32:00,56.0,44.0,-100.00,NW,325,7.0,14.0,65,0.00,,,0.02,774.000000,,2013-06-02 17:32:00,
2013-06-02 12:42:00,56.0,44.0,-100.00,NW,325,7.0,14.0,65,0.00,,,0.02,774.000000,,2013-06-02 17:42:00,
2013-06-02 12:52:00,56.0,44.0,-100.00,NW,325,7.0,14.0,65,0.00,,,0.02,774.000000,,2013-06-02 17:52:00,
2013-06-02 13:21:00,58.0,43.0,-100.00,WNW,295,7.0,13.0,57,0.00,,,0.02,996.000000,,2013-06-02 18:21:00,
2013-06-02 13:32:00,58.0,43.0,-100.00,WNW,295,7.0,13.0,57,0.00,,,0.02,996.000000,,2013-06-02 18:32:00,
2013-06-02 13:42:00,58.0,43.0,-100.00,WNW,295,7.0,13.0,57,0.00,,,0.02,996.000000,,2013-06-02 18:42:00,
2013-06-02 13:52:00,58.0,43.0,-100.00,WNW,295,7.0,13.0,57,0.00,,,0.02,996.000000,,2013-06-02 18:52:00,
2013-06-02 14:21:00,60.0,42.0,-100.00,WNW,296,7.0,12.0,52,0.00,,,0.01,951.000000,,2013-06-02 19:21:00,
2013-06-02 14:32:00,60.0,42.0,-100.00,WNW,296,7.0,12.0,52,0.00,,,0.01,951.000000,,2013-06-02 19:32:00,
2013-06-02 14:42:00,60.0,42.0,-100.00,WNW,296,7.0,12.0,52,0.00,,,0.01,951.000000,,2013-06-02 19:42:00,
2013-06-02 14:52:00,60.0,42.0,-100.00,WNW,296,7.0,12.0,52,0.00,,,0.01,951.000000,,2013-06-02 19:52:00,
2013-06-02 15:22:00,60.0,40.0,-100.00,NNW,340,4.0,11.0,47,0.00,,,0.00,906.000000,,2013-06-02 20:22:00,
2013-06-02 15:32:00,60.0,40.0,-100.00,NNW,340,4.0,11.0,47,0.00,,,0.00,906.000000,,2013-06-02 20:32:00,
2013-06-02 15:42:00,60.0,40.0,-100.00,NNW,340,4.0,11.0,47,0.00,,,0.00,906.000000,,2013-06-02 20:42:00,
2013-06-02 15:52:00,60.0,40.0,-100.00,NNW,340,4.0,11.0,47,0.00,,,0.00,906.000000,,2013-06-02 20:52:00,
2013-06-02 16:21:00,60.0,39.0,-100.00,NW,324,5.0,10.0,45,0.00,,,0.00,752.000000,,2013-06-02 21:21:00,
2013-06-02 16:33:00,60.0,39.0,-100.00,NW,324,5.0,10.0,45,0.00,,,0.00,752.000000,,2013-06-02 21:33:00,
2013-06-02 16:42:00,60.0,39.0,-100.00,NW,324,5.0,10.0,45,0.00,,,0.00,752.000000,,2013-06-02 21:42:00,
2013-06-02 16:53:00,60.0,39.0,-100.00,NW,324,5.0,10.0,45,0.00,,,0.00,752.000000,,2013-06-02 21:53:00,
2013-06-02 17:23:00,62.0,41.0,-100.00,NW,308,6.0,12.0,46,0.00,,,0.00,663.000000,,2013-06-02 22:23:00,
2013-06-02 17:33:00,62.0,41.0,-100.00,NW,308,6.0,12.0,46,0.00,,,0.00,663.000000,,2013-06-02 22:33:00,
2013-06-02 17:42:00,62.0,41.0,-100.00,NW,308,6.0,12.0,46,0.00,,,0.00,663.000000,,2013-06-02 22:42:00,
2013-06-02 17:52:00,62.0,41.0,-100.00,NW,308,6.0,12.0,46,0.00,,,0.00,663.000000,,2013-06-02 22:52:00,
2013-06-02 18:22:00,62.0,38.0,-100.00,East,93,6.0,9.0,41,0.00,,,0.00,619.000000,,2013-06-02 23:22:00,
2013-06-02 18:32:00,62.0,38.0,-100.00,East,93,6.0,9.0,41,0.00,,,0.00,619.000000,,2013-06-02 23:32:00,
2013-06-02 18:42:00,62.0,38.0,-100.00,East,93,6.0,9.0,41,0.00,,,0.00,619.000000,,2013-06-02 23:42:00,
2013-06-02 18:52:00,62.0,38.0,-100.00,East,93,6.0,9.0,41,0.00,,,0.00,619.000000,,2013-06-02 23:52:00,
2013-06-02 19:22:00,62.0,40.0,-100.00,NNE,13,4.0,9.0,44,0.00,,,0.00,399.000000,,2013-06-03 00:22:00,
2013-06-02 19:32:00,62.0,40.0,-100.00,NNE,13,4.0,9.0,44,0.00,,,0.00,399.000000,,2013-06-03 00:32:00,
2013-06-02 19:42:00,62.0,40.0,-100.00,NNE,13,4.0,9.0,44,0.00,,,0.00,399.000000,,2013-06-03 00:42:00,
2013-06-02 19:51:00,62.0,40.0,-100.00,NNE,13,4.0,9.0,44,0.00,,,0.00,399.000000,,2013-06-03 00:51:00,
2013-06-02 20:11:00,59.0,41.0,-100.00,East,90,6.0,8.0,51,0.00,,,0.00,168.000000,,2013-06-03 01:11:00,
2013-06-02 20:21:00,59.0,41.0,-100.00,East,90,6.0,8.0,51,0.00,,,0.00,168.000000,,2013-06-03 01:21:00,
2013-06-02 20:32:00,59.0,41.0,-100.00,East,90,6.0,8.0,51,0.00,,,0.00,168.000000,,2013-06-03 01:32:00,
2013-06-02 20:42:00,59.0,41.0,-100.00,East,90,6.0,8.0,51,0.00,,,0.00,168.000000,,2013-06-03 01:42:00,
2013-06-02 20:52:00,59.0,41.0,-100.00,East,90,6.0,8.0,51,0.00,,,0.00,168.000000,,2013-06-03 01:52:00,
2013-06-02 21:22:00,55.0,42.0,-100.00,ENE,71,5.0,7.0,61,0.00,,,0.00,55.000000,,2013-06-03 02:22:00,
2013-06-02 21:32:00,55.0,42.0,-100.00,ENE,71,5.0,7.0,61,0.00,,,0.00,55.000000,,2013-06-03 02:32:00,
2013-06-02 21:42:00,55.0,42.0,-100.00,ENE,71,5.0,7.0,61,0.00,,,0.00,55.000000,,2013-06-03 02:42:00,
2013-06-02 21:52:00,55.0,42.0,-100.00,ENE,71,5.0,7.0,61,0.00,,,0.00,55.000000,,2013-06-03 02:52:00,
2013-06-02 22:22:00,53.0,41.0,-100.00,East,95,5.0,7.0,64,0.00,,,0.00,4.000000,,2013-06-03 03:22:00,
2013-06-02 22:33:00,53.0,41.0,-100.00,East,95,5.0,7.0,64,0.00,,,0.00,4.000000,,2013-06-03 03:33:00,
2013-06-02 22:43:00,53.0,41.0,-100.00,East,95,5.0,7.0,64,0.00,,,0.00,4.000000,,2013-06-03 03:43:00,
2013-06-02 22:53:00,53.0,41.0,-100.00,East,95,5.0,7.0,64,0.00,,,0.00,4.000000,,2013-06-03 03:53:00,
2013-06-02 23:23:00,52.0,41.0,-100.00,East,79,5.0,6.0,67,0.00,,,0.00,0.000000,,2013-06-03 04:23:00,
2013-06-02 23:33:00,52.0,41.0,-100.00,East,79,5.0,6.0,67,0.00,,,0.00,0.000000,,2013-06-03 04:33:00,
2013-06-02 23:42:00,52.0,41.0,-100.00,East,79,5.0,6.0,67,0.00,,,0.00,0.000000,,2013-06-03 04:42:00,
2013-06-02 23:53:00,52.0,41.0,-100.00,East,79,5.0,6.0,67,0.00,,,0.00,0.000000,,2013-06-03 04:53:00,